contact:dominique.lefevre@mio.osupytheas.fr, maurice.libes@osupytheas.fr, didier.mallarino@osupytheas.fr
Project:EMSO http://www.emso-fr.org/EMSO-France
Depth: 2436.0 m
Title:EMSO Ligure Ouest : Data MII capteur MICROCAT
DateTime_Computer,Latitude,Longitude,Temperature,Conductivity,Pressure,DateTime_Instrument
DateTime_Computer,Latitude,Longitude,degC,S m-1,dbar,DateTime_Instrument
2020-02-13T00:00:02Z,42.805,6.029,13.2970,4.59971,2470.007,2020-2-13T02:00:36Z
2020-02-13T00:03:05Z,42.805,6.029,13.2971,4.59971,2470.007,2020-2-13T02:03:40Z
2020-02-13T00:06:08Z,42.805,6.029,13.2968,4.59972,2469.97,2020-2-13T02:06:43Z
2020-02-13T00:09:11Z,42.805,6.029,13.2973,4.59972,2470.007,2020-2-13T02:09:46Z
2020-02-13T00:12:14Z,42.805,6.029,13.2971,4.59970,2469.97,2020-2-13T02:12:49Z
2020-02-13T00:15:18Z,42.805,6.029,13.2971,4.59971,2469.96,2020-2-13T02:15:52Z
2020-02-13T00:18:21Z,42.805,6.029,13.2971,4.59971,2469.97,2020-2-13T02:18:56Z
2020-02-13T00:21:24Z,42.805,6.029,13.2975,4.59971,2469.993,2020-2-13T02:21:59Z
2020-02-13T00:24:27Z,42.805,6.029,13.2970,4.59970,2469.984,2020-2-13T02:25:02Z
2020-02-13T00:27:30Z,42.805,6.029,13.2971,4.59969,2469.96,2020-2-13T02:28:05Z
2020-02-13T00:30:34Z,42.805,6.029,13.2971,4.59970,2469.984,2020-2-13T02:31:08Z
2020-02-13T00:33:37Z,42.805,6.029,13.2973,4.59971,2469.984,2020-2-13T02:34:12Z
2020-02-13T00:36:40Z,42.805,6.029,13.2970,4.59971,2469.984,2020-2-13T02:37:15Z
2020-02-13T00:39:43Z,42.805,6.029,13.2972,4.59971,2469.937,2020-2-13T02:40:18Z
2020-02-13T00:42:46Z,42.805,6.029,13.2971,4.59971,2469.96,2020-2-13T02:43:21Z
2020-02-13T00:45:50Z,42.805,6.029,13.2972,4.59971,2469.947,2020-2-13T02:46:24Z
2020-02-13T00:48:53Z,42.805,6.029,13.2971,4.59969,2469.947,2020-2-13T02:49:27Z
2020-02-13T00:51:56Z,42.805,6.029,13.2973,4.59970,2469.96,2020-2-13T02:52:31Z
2020-02-13T00:54:59Z,42.805,6.029,13.2973,4.59970,2469.947,2020-2-13T02:55:34Z
2020-02-13T00:58:02Z,42.805,6.029,13.2971,4.59969,2469.984,2020-2-13T02:58:37Z
2020-02-13T01:01:05Z,42.805,6.029,13.2973,4.59970,2469.97,2020-2-13T03:01:40Z
2020-02-13T01:04:09Z,42.805,6.029,13.2971,4.59969,2469.937,2020-2-13T03:04:43Z
2020-02-13T01:07:12Z,42.805,6.029,13.2969,4.59971,2469.947,2020-2-13T03:07:47Z
2020-02-13T01:10:15Z,42.805,6.029,13.2971,4.59969,2469.937,2020-2-13T03:10:50Z
2020-02-13T01:13:18Z,42.805,6.029,13.2974,4.59971,2469.923,2020-2-13T03:13:53Z
2020-02-13T01:16:22Z,42.805,6.029,13.2967,4.59969,2469.937,2020-2-13T03:16:56Z
2020-02-13T01:19:25Z,42.805,6.029,13.2972,4.59969,2469.96,2020-2-13T03:20:00Z
2020-02-13T01:22:28Z,42.805,6.029,13.2971,4.59971,2469.914,2020-2-13T03:23:03Z
2020-02-13T01:25:31Z,42.805,6.029,13.2972,4.59970,2469.923,2020-2-13T03:26:06Z
2020-02-13T01:28:34Z,42.805,6.029,13.2971,4.59969,2469.947,2020-2-13T03:29:09Z
2020-02-13T01:31:37Z,42.805,6.029,13.2969,4.59968,2469.923,2020-2-13T03:32:12Z
2020-02-13T01:34:41Z,42.805,6.029,13.2971,4.59970,2469.937,2020-2-13T03:35:15Z
2020-02-13T01:37:44Z,42.805,6.029,13.2973,4.59972,2469.89,2020-2-13T03:38:19Z
2020-02-13T01:40:47Z,42.805,6.029,13.2968,4.59972,2469.96,2020-2-13T03:41:22Z
2020-02-13T01:43:50Z,42.805,6.029,13.2973,4.59968,2469.914,2020-2-13T03:44:25Z
2020-02-13T01:46:53Z,42.805,6.029,13.2967,4.59970,2469.947,2020-2-13T03:47:28Z
2020-02-13T01:49:57Z,42.805,6.029,13.2970,4.59968,2469.937,2020-2-13T03:50:31Z
2020-02-13T01:53:00Z,42.805,6.029,13.2971,4.59970,2469.923,2020-2-13T03:53:34Z
2020-02-13T01:56:03Z,42.805,6.029,13.2967,4.59969,2469.923,2020-2-13T03:56:38Z
2020-02-13T01:59:06Z,42.805,6.029,13.2969,4.59969,2469.937,2020-2-13T03:59:41Z
2020-02-13T02:02:09Z,42.805,6.029,13.2972,4.59970,2469.886,2020-2-13T04:02:44Z
2020-02-13T02:05:13Z,42.805,6.029,13.2967,4.59968,2469.96,2020-2-13T04:05:47Z
2020-02-13T02:08:16Z,42.805,6.029,13.2966,4.59968,2469.89,2020-2-13T04:08:50Z
2020-02-13T02:11:19Z,42.805,6.029,13.2974,4.59969,2469.876,2020-2-13T04:11:54Z
2020-02-13T02:14:22Z,42.805,6.029,13.2969,4.59970,2469.914,2020-2-13T04:14:57Z
2020-02-13T02:17:25Z,42.805,6.029,13.2973,4.59971,2469.937,2020-2-13T04:18:00Z
2020-02-13T02:20:28Z,42.805,6.029,13.2969,4.59968,2469.89,2020-2-13T04:21:03Z
2020-02-13T02:23:32Z,42.805,6.029,13.2968,4.59969,2469.853,2020-2-13T04:24:06Z
2020-02-13T02:26:35Z,42.805,6.029,13.2973,4.59969,2469.914,2020-2-13T04:27:10Z
2020-02-13T02:29:38Z,42.805,6.029,13.2974,4.59969,2469.9,2020-2-13T04:30:13Z
2020-02-13T02:32:41Z,42.805,6.029,13.2972,4.59968,2469.9,2020-2-13T04:33:16Z
2020-02-13T02:35:45Z,42.805,6.029,13.2968,4.59968,2469.914,2020-2-13T04:36:19Z
2020-02-13T02:38:48Z,42.805,6.029,13.2967,4.59968,2469.89,2020-2-13T04:39:22Z
2020-02-13T02:41:51Z,42.805,6.029,13.2973,4.59968,2469.89,2020-2-13T04:42:26Z
2020-02-13T02:44:54Z,42.805,6.029,13.2971,4.59969,2469.853,2020-2-13T04:45:29Z
2020-02-13T02:47:57Z,42.805,6.029,13.2966,4.59968,2469.853,2020-2-13T04:48:32Z
2020-02-13T02:51:01Z,42.805,6.029,13.2974,4.59969,2469.876,2020-2-13T04:51:35Z
2020-02-13T02:54:04Z,42.805,6.029,13.2971,4.59968,2469.9,2020-2-13T04:54:39Z
2020-02-13T02:57:07Z,42.805,6.029,13.2970,4.59968,2469.89,2020-2-13T04:57:42Z
2020-02-13T03:00:10Z,42.805,6.029,13.2971,4.59969,2469.9,2020-2-13T05:00:45Z
2020-02-13T03:03:14Z,42.805,6.029,13.2973,4.59969,2469.867,2020-2-13T05:03:48Z
2020-02-13T03:06:17Z,42.805,6.029,13.2974,4.59969,2469.853,2020-2-13T05:06:52Z
2020-02-13T03:09:20Z,42.805,6.029,13.2968,4.59968,2469.853,2020-2-13T05:09:55Z
2020-02-13T03:12:23Z,42.805,6.029,13.2970,4.59968,2469.853,2020-2-13T05:12:58Z
2020-02-13T03:15:26Z,42.805,6.029,13.2968,4.59968,2469.853,2020-2-13T05:16:01Z
2020-02-13T03:18:30Z,42.805,6.029,13.2969,4.59969,2469.853,2020-2-13T05:19:04Z
2020-02-13T03:21:33Z,42.805,6.029,13.2970,4.59968,2469.853,2020-2-13T05:22:08Z
2020-02-13T03:24:36Z,42.805,6.029,13.2968,4.59969,2469.83,2020-2-13T05:25:11Z
2020-02-13T03:27:39Z,42.805,6.029,13.2968,4.59969,2469.844,2020-2-13T05:28:14Z
2020-02-13T03:30:42Z,42.805,6.029,13.2970,4.59970,2469.876,2020-2-13T05:31:17Z
2020-02-13T03:33:46Z,42.805,6.029,13.2972,4.59969,2469.844,2020-2-13T05:34:20Z
2020-02-13T03:36:49Z,42.805,6.029,13.2972,4.59968,2469.853,2020-2-13T05:37:24Z
2020-02-13T03:39:52Z,42.805,6.029,13.2971,4.59968,2469.867,2020-2-13T05:40:27Z
2020-02-13T03:42:55Z,42.805,6.029,13.2971,4.59968,2469.876,2020-2-13T05:43:30Z
2020-02-13T03:45:59Z,42.805,6.029,13.2972,4.59968,2469.9,2020-2-13T05:46:33Z
2020-02-13T03:49:02Z,42.805,6.029,13.2968,4.59968,2469.853,2020-2-13T05:49:36Z
2020-02-13T03:52:05Z,42.805,6.029,13.2968,4.59969,2469.876,2020-2-13T05:52:40Z
2020-02-13T03:55:08Z,42.805,6.029,13.2974,4.59969,2469.876,2020-2-13T05:55:43Z
2020-02-13T03:58:11Z,42.805,6.029,13.2968,4.59969,2469.876,2020-2-13T05:58:46Z
2020-02-13T04:01:15Z,42.805,6.029,13.2968,4.59968,2469.876,2020-2-13T06:01:49Z
2020-02-13T04:04:18Z,42.805,6.029,13.2967,4.59970,2469.89,2020-2-13T06:04:53Z
2020-02-13T04:07:21Z,42.805,6.029,13.2970,4.59969,2469.876,2020-2-13T06:07:56Z
2020-02-13T04:10:24Z,42.805,6.029,13.2969,4.59968,2469.89,2020-2-13T06:10:59Z
2020-02-13T04:13:27Z,42.805,6.029,13.2971,4.59969,2469.844,2020-2-13T06:14:02Z
2020-02-13T04:16:31Z,42.805,6.029,13.2973,4.59971,2469.89,2020-2-13T06:17:05Z
2020-02-13T04:19:34Z,42.805,6.029,13.2968,4.59968,2469.83,2020-2-13T06:20:08Z
2020-02-13T04:22:37Z,42.805,6.029,13.2972,4.59968,2469.89,2020-2-13T06:23:12Z
2020-02-13T04:25:40Z,42.805,6.029,13.2972,4.59970,2469.9,2020-2-13T06:26:15Z
2020-02-13T04:28:43Z,42.805,6.029,13.2973,4.59970,2469.853,2020-2-13T06:29:18Z
2020-02-13T04:31:47Z,42.805,6.029,13.2972,4.59969,2469.876,2020-2-13T06:32:21Z
2020-02-13T04:34:50Z,42.805,6.029,13.2973,4.59969,2469.863,2020-2-13T06:35:24Z
2020-02-13T04:37:53Z,42.805,6.029,13.2971,4.59973,2469.876,2020-2-13T06:38:28Z
2020-02-13T04:40:56Z,42.805,6.029,13.2974,4.59970,2469.853,2020-2-13T06:41:31Z
2020-02-13T04:43:59Z,42.805,6.029,13.2970,4.59975,2469.863,2020-2-13T06:44:34Z
2020-02-13T04:47:03Z,42.805,6.029,13.2972,4.59970,2469.83,2020-2-13T06:47:37Z
2020-02-13T04:50:06Z,42.805,6.029,13.2970,4.59971,2469.914,2020-2-13T06:50:40Z
2020-02-13T04:53:09Z,42.805,6.029,13.2971,4.59979,2469.853,2020-2-13T06:53:44Z
2020-02-13T04:56:12Z,42.805,6.029,13.2971,4.59973,2469.914,2020-2-13T06:56:47Z
2020-02-13T04:59:15Z,42.805,6.029,13.2974,4.59975,2469.876,2020-2-13T06:59:50Z
2020-02-13T05:02:19Z,42.805,6.029,13.2972,4.59971,2469.89,2020-2-13T07:02:53Z
2020-02-13T05:05:22Z,42.805,6.029,13.2972,4.59971,2469.876,2020-2-13T07:05:56Z
2020-02-13T05:08:25Z,42.805,6.029,13.2970,4.59974,2469.9,2020-2-13T07:09:00Z
2020-02-13T05:11:28Z,42.805,6.029,13.2970,4.59971,2469.876,2020-2-13T07:12:03Z
2020-02-13T05:14:31Z,42.805,6.029,13.2971,4.59971,2469.9,2020-2-13T07:15:06Z
2020-02-13T05:17:34Z,42.805,6.029,13.2973,4.59970,2469.867,2020-2-13T07:18:09Z
2020-02-13T05:20:38Z,42.805,6.029,13.2968,4.59971,2469.914,2020-2-13T07:21:12Z
2020-02-13T05:23:41Z,42.805,6.029,13.2970,4.59978,2469.876,2020-2-13T07:24:16Z
2020-02-13T05:26:44Z,42.805,6.029,13.2970,4.59971,2469.914,2020-2-13T07:27:19Z
2020-02-13T05:29:47Z,42.805,6.029,13.2972,4.59971,2469.876,2020-2-13T07:30:22Z
2020-02-13T05:32:51Z,42.805,6.029,13.2969,4.59971,2469.937,2020-2-13T07:33:25Z
2020-02-13T05:35:54Z,42.805,6.029,13.2972,4.59970,2469.914,2020-2-13T07:36:28Z
2020-02-13T05:38:57Z,42.805,6.029,13.2971,4.59971,2469.9,2020-2-13T07:39:32Z
2020-02-13T05:42:00Z,42.805,6.029,13.2968,4.59971,2469.876,2020-2-13T07:42:35Z
2020-02-13T05:45:03Z,42.805,6.029,13.2975,4.59971,2469.876,2020-2-13T07:45:38Z
2020-02-13T05:48:06Z,42.805,6.029,13.2968,4.59978,2469.89,2020-2-13T07:48:41Z
2020-02-13T05:51:10Z,42.805,6.029,13.2969,4.59919,2469.9,2020-2-13T07:51:44Z
2020-02-13T05:54:13Z,42.805,6.029,13.2971,4.59973,2469.9,2020-2-13T07:54:48Z
2020-02-13T05:57:16Z,42.805,6.029,13.2969,4.59971,2469.923,2020-2-13T07:57:51Z
2020-02-13T06:00:19Z,42.805,6.029,13.2975,4.59971,2469.914,2020-2-13T08:00:54Z
2020-02-13T06:03:22Z,42.805,6.029,13.2971,4.59972,2469.914,2020-2-13T08:03:57Z
2020-02-13T06:06:26Z,42.805,6.029,13.2970,4.59971,2469.923,2020-2-13T08:07:00Z
2020-02-13T06:09:29Z,42.805,6.029,13.2975,4.59971,2469.923,2020-2-13T08:10:04Z
2020-02-13T06:12:32Z,42.805,6.029,13.2971,4.59971,2469.937,2020-2-13T08:13:07Z
2020-02-13T06:15:35Z,42.805,6.029,13.2973,4.59974,2469.96,2020-2-13T08:16:10Z
2020-02-13T06:18:38Z,42.805,6.029,13.2974,4.59972,2469.923,2020-2-13T08:19:13Z
2020-02-13T06:21:42Z,42.805,6.029,13.2968,4.59971,2469.923,2020-2-13T08:22:16Z
2020-02-13T06:24:45Z,42.805,6.029,13.2974,4.59972,2469.914,2020-2-13T08:25:19Z
2020-02-13T06:27:48Z,42.805,6.029,13.2976,4.59973,2469.96,2020-2-13T08:28:23Z
2020-02-13T06:30:51Z,42.805,6.029,13.2975,4.59975,2469.9,2020-2-13T08:31:26Z
2020-02-13T06:33:54Z,42.805,6.029,13.2976,4.59973,2469.97,2020-2-13T08:34:29Z
2020-02-13T06:36:58Z,42.805,6.029,13.2972,4.59973,2469.937,2020-2-13T08:37:32Z
2020-02-13T06:40:01Z,42.805,6.029,13.2973,4.59973,2469.97,2020-2-13T08:40:35Z
2020-02-13T06:43:04Z,42.805,6.029,13.2973,4.59973,2469.947,2020-2-13T08:43:39Z
2020-02-13T06:46:07Z,42.805,6.029,13.2975,4.59981,2469.97,2020-2-13T08:46:42Z
2020-02-13T06:49:10Z,42.805,6.029,13.2974,4.59974,2469.947,2020-2-13T08:49:45Z
2020-02-13T06:52:14Z,42.805,6.029,13.2975,4.59974,2469.947,2020-2-13T08:52:48Z
2020-02-13T06:55:17Z,42.805,6.029,13.2977,4.59974,2469.96,2020-2-13T08:55:51Z
2020-02-13T06:58:20Z,42.805,6.029,13.2973,4.59979,2469.97,2020-2-13T08:58:55Z
2020-02-13T07:01:23Z,42.805,6.029,13.2974,4.59981,2469.984,2020-2-13T09:01:58Z
2020-02-13T07:04:26Z,42.805,6.029,13.2977,4.59977,2469.97,2020-2-13T09:05:01Z
2020-02-13T07:07:30Z,42.805,6.029,13.2976,4.59977,2469.97,2020-2-13T09:08:04Z
2020-02-13T07:10:33Z,42.805,6.029,13.2976,4.59976,2469.984,2020-2-13T09:11:08Z
2020-02-13T07:13:36Z,42.805,6.029,13.2977,4.59978,2470.03,2020-2-13T09:14:11Z
2020-02-13T07:16:39Z,42.805,6.029,13.2974,4.59984,2469.993,2020-2-13T09:17:14Z
2020-02-13T07:19:42Z,42.805,6.029,13.2973,4.59976,2469.993,2020-2-13T09:20:17Z
2020-02-13T07:22:46Z,42.805,6.029,13.2971,4.59979,2470.007,2020-2-13T09:23:20Z
2020-02-13T07:25:49Z,42.805,6.029,13.2976,4.59981,2470.03,2020-2-13T09:26:24Z
2020-02-13T07:28:52Z,42.805,6.029,13.2978,4.59978,2470.017,2020-2-13T09:29:27Z
2020-02-13T07:31:55Z,42.805,6.029,13.2977,4.59976,2470.053,2020-2-13T09:32:30Z
2020-02-13T07:34:58Z,42.805,6.029,13.2975,4.59978,2470.04,2020-2-13T09:35:33Z
2020-02-13T07:38:02Z,42.805,6.029,13.2981,4.59984,2470.053,2020-2-13T09:38:36Z
2020-02-13T07:41:05Z,42.805,6.029,13.2978,4.59981,2470.04,2020-2-13T09:41:40Z
2020-02-13T07:44:08Z,42.805,6.029,13.2972,4.59978,2470.053,2020-2-13T09:44:43Z
2020-02-13T07:47:11Z,42.805,6.029,13.2977,4.59980,2470.017,2020-2-13T09:47:46Z
2020-02-13T07:50:15Z,42.805,6.029,13.2980,4.59979,2470.053,2020-2-13T09:50:49Z
2020-02-13T07:53:18Z,42.805,6.029,13.2976,4.59978,2470.077,2020-2-13T09:53:52Z
2020-02-13T07:56:21Z,42.805,6.029,13.2981,4.59981,2470.077,2020-2-13T09:56:56Z
2020-02-13T07:59:24Z,42.805,6.029,13.2975,4.59980,2470.053,2020-2-13T09:59:59Z
2020-02-13T08:02:27Z,42.805,6.029,13.2979,4.59995,2470.063,2020-2-13T10:03:02Z
2020-02-13T08:05:31Z,42.805,6.029,13.2981,4.59993,2470.063,2020-2-13T10:06:05Z
2020-02-13T08:08:34Z,42.805,6.029,13.2974,4.59983,2470.087,2020-2-13T10:09:09Z
2020-02-13T08:11:37Z,42.805,6.029,13.2976,4.59981,2470.087,2020-2-13T10:12:12Z
2020-02-13T08:14:40Z,42.805,6.029,13.2982,4.59981,2470.087,2020-2-13T10:15:15Z
2020-02-13T08:17:43Z,42.805,6.029,13.2974,4.59979,2470.1,2020-2-13T10:18:18Z
2020-02-13T08:20:47Z,42.805,6.029,13.2978,4.59991,2470.124,2020-2-13T10:21:21Z
2020-02-13T08:23:50Z,42.805,6.029,13.2981,4.59981,2470.077,2020-2-13T10:24:25Z
2020-02-13T08:26:53Z,42.805,6.029,13.2981,4.59994,2470.11,2020-2-13T10:27:28Z
2020-02-13T08:29:56Z,42.805,6.029,13.2977,4.59993,2470.1,2020-2-13T10:30:31Z
2020-02-13T08:33:00Z,42.805,6.029,13.2980,4.59986,2470.087,2020-2-13T10:33:34Z
2020-02-13T08:36:03Z,42.805,6.029,13.2978,4.59986,2470.1,2020-2-13T10:36:37Z
2020-02-13T08:39:06Z,42.805,6.029,13.2981,4.60001,2470.11,2020-2-13T10:39:41Z
2020-02-13T08:42:09Z,42.805,6.029,13.2985,4.60010,2470.087,2020-2-13T10:42:44Z
2020-02-13T08:45:12Z,42.805,6.029,13.2982,4.60007,2470.1,2020-2-13T10:45:47Z
2020-02-13T08:48:15Z,42.805,6.029,13.2993,4.60014,2470.133,2020-2-13T10:48:50Z
2020-02-13T08:51:19Z,42.805,6.029,13.2994,4.59998,2470.11,2020-2-13T10:51:53Z
2020-02-13T08:54:22Z,42.805,6.029,13.2997,4.60000,2470.11,2020-2-13T10:54:57Z
2020-02-13T08:57:25Z,42.805,6.029,13.3000,4.59999,2470.1,2020-2-13T10:58:00Z
2020-02-13T09:00:28Z,42.805,6.029,13.3005,4.60001,2470.133,2020-2-13T11:01:03Z
2020-02-13T09:03:32Z,42.805,6.029,13.3009,4.59993,2470.133,2020-2-13T11:04:06Z
2020-02-13T09:06:35Z,42.805,6.029,13.3000,4.59997,2470.133,2020-2-13T11:07:10Z
2020-02-13T09:09:38Z,42.805,6.029,13.2991,4.60000,2470.147,2020-2-13T11:10:13Z
2020-02-13T09:12:41Z,42.805,6.029,13.3009,4.60070,2470.147,2020-2-13T11:13:16Z
2020-02-13T09:15:44Z,42.805,6.029,13.2990,4.60086,2470.133,2020-2-13T11:16:19Z
2020-02-13T09:18:48Z,42.805,6.029,13.2987,4.60068,2470.171,2020-2-13T11:19:22Z
2020-02-13T09:21:51Z,42.805,6.029,13.2984,4.60062,2470.124,2020-2-13T11:22:26Z
2020-02-13T09:24:54Z,42.805,6.029,13.2982,4.60062,2470.133,2020-2-13T11:25:29Z
2020-02-13T09:27:57Z,42.805,6.029,13.2977,4.60034,2470.147,2020-2-13T11:28:32Z
2020-02-13T09:31:00Z,42.805,6.029,13.2979,4.60017,2470.124,2020-2-13T11:31:35Z
2020-02-13T09:34:04Z,42.805,6.029,13.2982,4.60039,2470.147,2020-2-13T11:34:38Z
2020-02-13T09:37:07Z,42.805,6.029,13.2980,4.60016,2470.147,2020-2-13T11:37:42Z
2020-02-13T09:40:10Z,42.805,6.029,13.2979,4.60014,2470.147,2020-2-13T11:40:45Z
2020-02-13T09:43:13Z,42.805,6.029,13.2979,4.60014,2470.18,2020-2-13T11:43:48Z
2020-02-13T09:46:16Z,42.805,6.029,13.2979,4.60010,2470.133,2020-2-13T11:46:51Z
2020-02-13T09:49:20Z,42.805,6.029,13.2979,4.60016,2470.156,2020-2-13T11:49:54Z
2020-02-13T09:52:23Z,42.805,6.029,13.2982,4.60040,2470.156,2020-2-13T11:52:58Z
2020-02-13T09:55:26Z,42.805,6.029,13.2980,4.60037,2470.156,2020-2-13T11:56:01Z
2020-02-13T09:58:29Z,42.805,6.029,13.2984,4.60078,2470.171,2020-2-13T11:59:04Z
2020-02-13T10:01:33Z,42.805,6.029,13.2979,4.60017,2470.156,2020-2-13T12:02:07Z
2020-02-13T10:04:36Z,42.805,6.029,13.2980,4.60007,2470.147,2020-2-13T12:05:11Z
2020-02-13T10:07:39Z,42.805,6.029,13.2979,4.60009,2470.124,2020-2-13T12:08:14Z
2020-02-13T10:10:42Z,42.805,6.029,13.2976,4.60006,2470.147,2020-2-13T12:11:17Z
2020-02-13T10:13:45Z,42.805,6.029,13.2977,4.60001,2470.156,2020-2-13T12:14:20Z
2020-02-13T10:16:49Z,42.805,6.029,13.2981,4.59999,2470.156,2020-2-13T12:17:23Z
2020-02-13T10:19:52Z,42.805,6.029,13.2978,4.60005,2470.124,2020-2-13T12:20:27Z
2020-02-13T10:22:55Z,42.805,6.029,13.2982,4.60001,2470.133,2020-2-13T12:23:30Z
2020-02-13T10:25:58Z,42.805,6.029,13.2979,4.60009,2470.133,2020-2-13T12:26:33Z
2020-02-13T10:29:02Z,42.805,6.029,13.2976,4.60008,2470.147,2020-2-13T12:29:36Z
2020-02-13T10:32:05Z,42.805,6.029,13.2980,4.60006,2470.11,2020-2-13T12:32:40Z
2020-02-13T10:35:08Z,42.805,6.029,13.2975,4.60014,2470.133,2020-2-13T12:35:43Z
2020-02-13T10:38:11Z,42.805,6.029,13.2978,4.60008,2470.124,2020-2-13T12:38:46Z
2020-02-13T10:41:14Z,42.805,6.029,13.2978,4.60008,2470.171,2020-2-13T12:41:49Z
2020-02-13T10:44:18Z,42.805,6.029,13.2979,4.60000,2470.133,2020-2-13T12:44:52Z
2020-02-13T10:47:21Z,42.805,6.029,13.2986,4.60003,2470.147,2020-2-13T12:47:56Z
2020-02-13T10:50:24Z,42.805,6.029,13.2981,4.60012,2470.11,2020-2-13T12:50:59Z
2020-02-13T10:53:28Z,42.805,6.029,13.2982,4.60013,2470.133,2020-2-13T12:54:03Z
2020-02-13T10:56:31Z,42.805,6.029,13.2982,4.60044,2470.147,2020-2-13T12:57:06Z
2020-02-13T10:59:34Z,42.805,6.029,13.2979,4.60020,2470.147,2020-2-13T13:00:09Z
2020-02-13T11:02:37Z,42.805,6.029,13.2975,4.60016,2470.147,2020-2-13T13:03:12Z
2020-02-13T11:05:41Z,42.805,6.029,13.2979,4.60009,2470.124,2020-2-13T13:06:15Z
2020-02-13T11:08:44Z,42.805,6.029,13.2978,4.60006,2470.124,2020-2-13T13:09:19Z
2020-02-13T11:11:47Z,42.805,6.029,13.2974,4.59999,2470.124,2020-2-13T13:12:22Z
2020-02-13T11:14:50Z,42.805,6.029,13.2978,4.59999,2470.087,2020-2-13T13:15:25Z
2020-02-13T11:17:53Z,42.805,6.029,13.2981,4.59991,2470.156,2020-2-13T13:18:28Z
2020-02-13T11:20:57Z,42.805,6.029,13.2976,4.59996,2470.11,2020-2-13T13:21:32Z
2020-02-13T11:24:00Z,42.805,6.029,13.2976,4.59998,2470.11,2020-2-13T13:24:35Z
2020-02-13T11:27:03Z,42.805,6.029,13.2976,4.59994,2470.11,2020-2-13T13:27:38Z
2020-02-13T11:30:07Z,42.805,6.029,13.2976,4.59994,2470.171,2020-2-13T13:30:41Z
2020-02-13T11:33:10Z,42.805,6.029,13.2979,4.59996,2470.156,2020-2-13T13:33:45Z
2020-02-13T11:36:13Z,42.805,6.029,13.2977,4.59992,2470.133,2020-2-13T13:36:48Z
2020-02-13T11:39:16Z,42.805,6.029,13.2974,4.59994,2470.124,2020-2-13T13:39:51Z
2020-02-13T11:42:19Z,42.805,6.029,13.2974,4.59994,2470.11,2020-2-13T13:42:54Z
2020-02-13T11:45:23Z,42.805,6.029,13.2985,4.59999,2470.171,2020-2-13T13:45:57Z
2020-02-13T11:48:26Z,42.805,6.029,13.2978,4.59997,2470.147,2020-2-13T13:49:01Z
2020-02-13T11:51:29Z,42.805,6.029,13.2974,4.59990,2470.11,2020-2-13T13:52:04Z
2020-02-13T11:54:32Z,42.805,6.029,13.2976,4.59984,2470.11,2020-2-13T13:55:07Z
2020-02-13T11:57:36Z,42.805,6.029,13.2972,4.59985,2470.11,2020-2-13T13:58:10Z
2020-02-13T12:00:39Z,42.805,6.029,13.2979,4.59983,2470.147,2020-2-13T14:01:13Z
2020-02-13T12:03:42Z,42.805,6.029,13.2975,4.59983,2470.087,2020-2-13T14:04:17Z
2020-02-13T12:06:45Z,42.805,6.029,13.2973,4.59982,2470.124,2020-2-13T14:07:20Z
2020-02-13T12:09:48Z,42.805,6.029,13.2976,4.59983,2470.087,2020-2-13T14:10:23Z
2020-02-13T12:12:52Z,42.805,6.029,13.2974,4.59981,2470.11,2020-2-13T14:13:26Z
2020-02-13T12:15:55Z,42.805,6.029,13.2975,4.59983,2470.11,2020-2-13T14:16:30Z
2020-02-13T12:18:58Z,42.805,6.029,13.2976,4.59981,2470.11,2020-2-13T14:19:33Z
2020-02-13T12:22:01Z,42.805,6.029,13.2978,4.59982,2470.11,2020-2-13T14:22:36Z
2020-02-13T12:25:04Z,42.805,6.029,13.2975,4.59983,2470.124,2020-2-13T14:25:39Z
2020-02-13T12:28:08Z,42.805,6.029,13.2974,4.59985,2470.1,2020-2-13T14:28:42Z
2020-02-13T12:31:11Z,42.805,6.029,13.2976,4.59980,2470.124,2020-2-13T14:31:46Z
2020-02-13T12:34:14Z,42.805,6.029,13.2974,4.59982,2470.124,2020-2-13T14:34:49Z
2020-02-13T12:37:17Z,42.805,6.029,13.2979,4.59983,2470.124,2020-2-13T14:37:52Z
2020-02-13T12:40:21Z,42.805,6.029,13.2976,4.59981,2470.087,2020-2-13T14:40:55Z
2020-02-13T12:43:24Z,42.805,6.029,13.2978,4.59981,2470.087,2020-2-13T14:43:59Z
2020-02-13T12:46:27Z,42.805,6.029,13.2976,4.59981,2470.1,2020-2-13T14:47:02Z
2020-02-13T12:49:30Z,42.805,6.029,13.2975,4.59983,2470.1,2020-2-13T14:50:05Z
2020-02-13T12:52:34Z,42.805,6.029,13.2975,4.59978,2470.11,2020-2-13T14:53:08Z
2020-02-13T12:55:37Z,42.805,6.029,13.2970,4.59980,2470.063,2020-2-13T14:56:12Z
2020-02-13T12:58:40Z,42.805,6.029,13.2975,4.59980,2470.1,2020-2-13T14:59:15Z
2020-02-13T13:01:43Z,42.805,6.029,13.2976,4.59978,2470.053,2020-2-13T15:02:18Z
2020-02-13T13:04:47Z,42.805,6.029,13.2974,4.59979,2470.087,2020-2-13T15:05:21Z
2020-02-13T13:07:50Z,42.805,6.029,13.2976,4.59980,2470.063,2020-2-13T15:08:24Z
2020-02-13T13:10:53Z,42.805,6.029,13.2979,4.59978,2470.077,2020-2-13T15:11:28Z
2020-02-13T13:13:56Z,42.805,6.029,13.2974,4.59977,2470.04,2020-2-13T15:14:31Z
2020-02-13T13:16:59Z,42.805,6.029,13.2977,4.59977,2470.077,2020-2-13T15:17:34Z
2020-02-13T13:20:03Z,42.805,6.029,13.2976,4.59978,2470.063,2020-2-13T15:20:37Z
2020-02-13T13:23:06Z,42.805,6.029,13.2974,4.59978,2470.063,2020-2-13T15:23:41Z
2020-02-13T13:26:09Z,42.805,6.029,13.2974,4.59979,2470.053,2020-2-13T15:26:44Z
2020-02-13T13:29:13Z,42.805,6.029,13.2976,4.59978,2470.053,2020-2-13T15:29:47Z
2020-02-13T13:32:16Z,42.805,6.029,13.2975,4.59977,2470.04,2020-2-13T15:32:51Z
2020-02-13T13:35:19Z,42.805,6.029,13.2974,4.59978,2470.04,2020-2-13T15:35:54Z
2020-02-13T13:38:22Z,42.805,6.029,13.2975,4.59977,2470.077,2020-2-13T15:38:57Z
2020-02-13T13:41:25Z,42.805,6.029,13.2974,4.59976,2470.053,2020-2-13T15:42:00Z
2020-02-13T13:44:29Z,42.805,6.029,13.2971,4.59979,2470.017,2020-2-13T15:45:03Z
2020-02-13T13:47:32Z,42.805,6.029,13.2972,4.59975,2470.04,2020-2-13T15:48:07Z
2020-02-13T13:50:35Z,42.805,6.029,13.2971,4.59976,2470.017,2020-2-13T15:51:10Z
2020-02-13T13:53:38Z,42.805,6.029,13.2972,4.59977,2469.993,2020-2-13T15:54:13Z
2020-02-13T13:56:42Z,42.805,6.029,13.2972,4.59976,2470.063,2020-2-13T15:57:16Z
2020-02-13T13:59:45Z,42.805,6.029,13.2974,4.59975,2469.979,2020-2-13T16:00:19Z
2020-02-13T14:02:48Z,42.805,6.029,13.2973,4.59976,2470.017,2020-2-13T16:03:23Z
2020-02-13T14:05:51Z,42.805,6.029,13.2976,4.59976,2470.017,2020-2-13T16:06:26Z
2020-02-13T14:08:54Z,42.805,6.029,13.2970,4.59975,2470.04,2020-2-13T16:09:29Z
2020-02-13T14:11:58Z,42.805,6.029,13.2972,4.59975,2470.04,2020-2-13T16:12:32Z
2020-02-13T14:15:01Z,42.805,6.029,13.2968,4.59973,2470.007,2020-2-13T16:15:36Z
2020-02-13T14:18:04Z,42.805,6.029,13.2972,4.59975,2470.053,2020-2-13T16:18:39Z
2020-02-13T14:21:07Z,42.805,6.029,13.2971,4.59973,2469.993,2020-2-13T16:21:42Z
2020-02-13T14:24:10Z,42.805,6.029,13.2971,4.59973,2470.007,2020-2-13T16:24:45Z
2020-02-13T14:27:14Z,42.805,6.029,13.2970,4.59972,2470.03,2020-2-13T16:27:48Z
2020-02-13T14:30:17Z,42.805,6.029,13.2969,4.59973,2469.984,2020-2-13T16:30:52Z
2020-02-13T14:33:20Z,42.805,6.029,13.2971,4.59973,2469.984,2020-2-13T16:33:55Z
2020-02-13T14:36:23Z,42.805,6.029,13.2974,4.59973,2470.053,2020-2-13T16:36:58Z
2020-02-13T14:39:26Z,42.805,6.029,13.2971,4.59973,2470.007,2020-2-13T16:40:01Z
2020-02-13T14:42:30Z,42.805,6.029,13.2970,4.59971,2470.017,2020-2-13T16:43:04Z
2020-02-13T14:45:33Z,42.805,6.029,13.2974,4.59973,2469.993,2020-2-13T16:46:08Z
2020-02-13T14:48:36Z,42.805,6.029,13.2975,4.59973,2469.993,2020-2-13T16:49:11Z
2020-02-13T14:51:39Z,42.805,6.029,13.2969,4.59973,2469.97,2020-2-13T16:52:14Z
2020-02-13T14:54:42Z,42.805,6.029,13.2971,4.59973,2469.993,2020-2-13T16:55:17Z
2020-02-13T14:57:46Z,42.805,6.029,13.2971,4.59972,2469.97,2020-2-13T16:58:20Z
2020-02-13T15:00:49Z,42.805,6.029,13.2972,4.59972,2470.03,2020-2-13T17:01:24Z
2020-02-13T15:03:52Z,42.805,6.029,13.2973,4.59971,2469.97,2020-2-13T17:04:27Z
2020-02-13T15:06:55Z,42.805,6.029,13.2971,4.59975,2469.984,2020-2-13T17:07:30Z
2020-02-13T15:09:58Z,42.805,6.029,13.2971,4.59970,2469.984,2020-2-13T17:10:33Z
2020-02-13T15:13:02Z,42.805,6.029,13.2972,4.59971,2469.97,2020-2-13T17:13:36Z